Overview Statistics Trail Chart Weather Telemetry Raw packets
 

This is the latest recevied weather packets stored in our database for station/object N6GPM. If no packets are shown the sender has not sent any weather packets the latest 10 day(s).

<< 110 111 112 113 114 >>
Time Temp. Humidity Pressure Rain* Wind** Luminosity Snow
1787842725 26.67° C 52% 1017.9 hPa 0 mm - 214 W/m² -
1787842420 26.11° C 52% 1017.7 hPa 0 mm - 174 W/m² -
1787842119 26.11° C 52% 1017.7 hPa 0 mm - 111 W/m² -
1787841817 26.11° C 53% 1017.7 hPa 0 mm - 85 W/m² -
1787841511 26.11° C 53% 1017.7 hPa 0 mm - 69 W/m² -
1787841209 26.11° C 53% 1017.6 hPa 0 mm - 59 W/m² -
1787840904 26.11° C 53% 1017.7 hPa 0 mm - 57 W/m² -
1787840600 26.11° C 53% 1017.7 hPa 0 mm - 60 W/m² -
1787840295 26.11° C 54% 1017.5 hPa 0 mm - 58 W/m² -
1787839994 26.11° C 54% 1017.3 hPa 0 mm - 51 W/m² -
1787839689 25.56° C 54% 1017 hPa 0 mm - 43 W/m² -
1787839384 25.56° C 54% 1017.2 hPa 0 mm - 41 W/m² -
1787839084 25.56° C 54% 1016.7 hPa 0 mm - 38 W/m² -
1787838783 26.11° C 53% 1017 hPa 0 mm - 25 W/m² -
1787838478 26.11° C 53% 1017 hPa 0 mm - 15 W/m² -
1787838176 26.11° C 53% 1016.9 hPa 0 mm - 10 W/m² -
1787837871 26.11° C 52% 1016.9 hPa 0 mm - 8 W/m² -
1787837570 26.11° C 52% 1017 hPa 0 mm - 6 W/m² -
1787837269 26.11° C 53% 1016.9 hPa 0 mm - 4 W/m² -
1787836965 26.11° C 53% 1017.2 hPa 0 mm - 3 W/m² -
1787836660 26.11° C 52% 1017.3 hPa 0 mm - 1 W/m² -
1787836359 26.67° C 51% 1017 hPa 0 mm - 1 W/m² -
1787836055 26.67° C 51% 1016.9 hPa 0 mm - 0 W/m² -
1787835750 26.67° C 50% 1016.8 hPa 0 mm - 0 W/m² -
1787835445 26.67° C 50% 1016.5 hPa 0 mm - 0 W/m² -

* Rain latest hour (hover to see other rain measurements)
** Current wind speed in m/s (hover to see current wind gust speed)